Cloud_Cover
0 0 0 0 0 4 86 75 70 70 50 100 52 100 100 100 98 99 100 100 100 100 100 100 100 100 0 0 0 0 2 0 0 0 0 100 0 79 42 0 0 0 0 82
0 0 0 0 0 4 6 91 63 88 92 54 91 100 100 100 96 51 100 100 60 100 100 97 99 55 32 4 2 0 0 0 0 0 0 0 4 49 0 0 0 0 0 0
0 0 0 0 0 1 5 76 84 100 61 99 100 100 100 100 99 99 100 100 100 97 100 100 100 83 100 94 21 46 39 4 0 0 0 0 2 90 9 0 0 0 1 0
0 0 0 0 0 0 1 5 85 99 90 100 88 100 100 100 100 100 100 100 100 97 100 97 85 68 0 26 94 54 1 9 0 0 0 74 21 0 0 0 0 0 0 72
0 0 0 0 0 0 0 5 100 100 83 92 93 95 100 97 100 100 100 100 100 100 100 81 7 90 5 28 89 97 31 2 0 0 0 24 100 1 0 0 0 0 0 18
0 0 0 0 0 0 0 4 100 100 100 61 47 100 100 100 100 100 100 100 100 100 96 88 74 13 15 97 90 3 5 0 42 1 0 1 100 27 0 0 0 0 0 0
0 0 0 0 0 2 0 2 49 99 81 8 49 79 100 100 92 100 100 100 100 100 100 100 100 80 55 98 32 3 0 0 11 14 0 0 8 38 1 0 0 0 0 0
0 0 0 0 0 0 5 4 95 99 44 10 2 0 52 100 100 100 100 98 100 100 100 100 89 100 100 100 73 5 0 0 5 37 0 0 0 2 7 0 0 0 0 0
0 0 0 0 0 1 1 32 5 97 6 51 5 3 100 79 30 98 99 100 91 84 100 98 100 98 95 100 74 21 0 0 0 0 0 0 0 0 0 0 0 0 0 0
0 0 0 0 0 0 3 10 50 64 58 48 5 96 62 39 50 9 100 85 64 12 74 100 100 88 98 100 69 6 20 0 0 0 0 0 0 0 0 0 0 0 0 0
0 0 0 0 0 0 0 4 97 6 41 0 2 1 100 95 89 85 95 100 100 95 5 100 100 78 80 100 98 81 5 0 0 0 0 0 0 0 0 0 0 0 0 0
0 0 0 0 0 0 0 0 92 5 36 0 5 1 100 100 100 100 100 10 75 100 5 100 100 100 38 94 100 44 0 0 0 0 0 0 0 0 0 0 0 0 0 0
0 0 0 0 0 0 0 0 10 94 99 0 4 7 14 100 92 74 100 97 87 21 5 65 8 100 100 63 95 1 0 0 0 0 0 0 0 0 0 0 0 0 0 0
0 0 0 0 0 0 0 0 0 25 38 1 0 43 97 100 46 91 100 93 95 49 5 55 2 100 100 47 6 6 5 13 0 0 0 0 0 0 0 0 0 0 0 0
0 0 0 0 0 0 0 0 0 97 87 30 3 65 100 33 3 97 38 76 60 53 11 93 29 0 9 52 89 7 0 2 0 0 4 5 0 0 0 0 0 0 0 0
5 0 0 0 0 1 1 0 0 1 3 5 89 100 95 35 100 32 17 100 99 100 95 4 0 0 0 5 71 100 52 0 0 0 0 0 5 5 0 0 0 0 0 0
30 5 0 0 0 37 80 5 65 95 88 1 96 100 11 95 68 5 5 88 5 6 6 2 5 28 57 5 59 98 70 94 1 4 1 2 1 4 5 2 0 0 2 1
30 100 5 0 0 100 100 98 100 100 69 26 72 78 5 73 93 0 5 4 10 76 5 0 5 5 2 5 5 42 95 12 82 8 0 0 3 0 0 4 5 0 0 26
100 60 3 0 0 21 100 100 100 100 99 93 16 54 72 13 100 7 24 84 100 100 47 4 1 2 1 3 25 100 100 99 100 75 12 0 0 4 0 0 66 4 1 10
100 99 12 0 1 40 100 100 100 45 98 100 100 42 5 100 100 100 8 48 93 91 14 4 10 23 32 43 100 100 59 69 12 5 63 61 0 3 4 2 0 40 75 84
100 92 62 7 20 71 100 100 100 100 100 100 100 100 100 7 92 98 98 18 5 0 1 19 19 62 99 93 98 100 98 95 93 100 9 38 4 21 5 0 2 5 4 12
3 0 12 1 100 98 97 100 100 100 100 100 100 100 100 98 100 62 19 33 2 0 4 91 30 73 78 100 97 100 100 100 55 100 42 2 72 5 0 3 1 0 0 15
16 0 4 6 57 100 100 100 87 100 100 100 100 98 100 36 69 100 96 40 29 1 2 27 85 53 92 90 100 100 100 100 100 98 98 84 45 43 4 26 56 0 49 0
66 65 2 5 94 22 40 100 100 100 100 100 100 100 73 36 93 66 100 87 22 29 3 0 1 53 85 100 100 100 100 100 100 78 100 100 100 83 8 45 15 11 6 6
100 100 68 53 71 100 92 84 36 56 41 100 100 100 100 68 89 86 96 69 8 0 0 0 1 96 100 100 100 100 100 100 100 100 100 100 100 100 100 94 51 69 29 17
100 100 100 77 5 17 59 99 100 96 96 2 56 93 100 99 91 100 88 99 17 0 0 0 74 100 100 100 100 100 100 100 100 100 100 100 100 100 84 53 9 20 98 6